CAPE
2 2 2 1 0 0 0 0 0 0 0 0 0 0 0 0 0 0 0 0 0 0 0 0 0 0 0 0 0 0 0 0 0 0 0 0 0 0 0 0 0 0 0 0
3 3 3 1 0 0 2 0 0 0 0 0 0 0 0 0 0 0 0 0 0 0 0 0 0 0 0 0 0 0 0 0 0 0 0 0 0 0 0 0 0 0 0 0
4 4 1 0 0 0 0 0 0 0 0 0 0 0 0 0 0 0 0 0 0 0 0 0 0 0 0 0 0 0 0 0 0 0 0 0 0 0 0 1 0 0 0 0
8 1 0 0 14 1 0 0 0 0 0 0 0 0 0 0 0 0 0 0 0 0 0 0 0 0 0 0 0 0 0 0 0 0 0 0 0 0 0 0 0 0 0 0
1 1 6 0 1 0 0 0 0 0 0 0 0 0 0 0 0 0 0 0 0 0 0 0 0 0 0 0 0 0 0 0 0 0 0 0 0 0 0 0 0 0 0 0
10 11 10 0 0 0 0 0 0 0 0 0 0 0 0 0 0 0 0 0 0 0 0 0 0 0 0 0 0 0 0 0 0 0 0 0 0 0 0 0 0 0 0 0
7 3 0 0 0 0 0 0 0 0 0 0 0 0 0 0 0 0 0 0 0 0 0 0 0 0 0 0 0 1 0 0 0 0 0 0 0 0 0 0 0 0 0 0
0 0 0 0 0 0 0 0 0 0 0 0 0 0 0 0 0 0 0 0 0 0 0 0 0 0 0 0 1 0 0 0 0 0 0 0 0 0 0 1 0 0 0 0
0 0 0 0 0 0 0 0 0 0 0 0 0 0 0 0 0 0 0 0 0 0 0 0 0 0 0 0 0 0 0 0 0 0 0 0 0 0 0 0 0 1 0 0
0 0 0 0 0 0 0 0 0 0 0 0 0 0 0 0 0 0 0 0 0 0 0 0 0 0 0 0 0 0 0 0 0 0 0 0 0 0 0 0 0 0 0 0
0 0 0 0 0 0 0 0 0 0 0 0 0 0 0 0 0 0 0 0 0 0 0 0 0 0 0 0 0 0 0 0 0 0 0 0 0 0 0 1 1 0 0 0
0 0 0 0 0 0 0 0 0 0 0 0 0 0 0 0 0 0 0 0 0 0 0 0 0 0 0 0 0 0 0 0 0 0 0 0 1 2 0 0 0 1 0 0
0 0 0 0 0 0 0 0 0 0 0 0 0 0 0 0 0 0 0 0 0 0 0 0 0 0 0 0 0 0 0 0 0 0 0 0 2 1 0 0 0 0 0 0
0 0 0 0 0 0 0 0 0 0 0 0 0 0 0 0 0 0 0 0 0 0 0 0 0 0 0 0 0 0 0 0 1 2 1 1 2 1 1 1 0 0 0 0
0 0 0 0 0 0 0 0 0 0 0 0 0 0 0 0 0 0 0 0 0 0 0 0 0 0 0 0 0 0 0 0 0 0 0 0 1 0 0 0 0 0 0 0
0 0 0 0 0 0 0 0 0 0 0 0 0 0 0 0 0 0 0 0 0 0 0 0 0 2 0 0 0 0 0 1 0 0 0 0 0 0 0 0 0 0 0 0
0 0 0 0 0 0 0 0 0 0 0 0 0 0 0 0 0 0 0 0 0 0 0 0 1 1 0 0 0 0 0 0 0 0 0 0 0 0 0 0 0 0 0 0
0 0 0 0 0 0 0 0 0 0 0 0 0 0 6 1 0 0 0 0 0 0 0 0 0 0 0 0 0 0 0 0 0 0 0 0 0 0 0 0 0 0 0 0
0 0 0 0 0 0 0 0 0 0 0 0 0 0 0 0 0 0 0 0 0 0 0 0 3 0 0 0 0 0 0 0 0 0 0 0 0 0 0 0 0 0 0 0
0 0 0 0 0 0 0 0 0 0 0 0 0 0 0 0 0 0 0 0 0 0 0 0 0 0 1 0 0 0 0 0 0 0 0 0 0 0 0 0 0 0 0 0
0 0 0 3 3 0 0 0 0 0 0 0 0 0 0 0 0 0 0 0 0 0 0 1 0 0 0 0 0 0 0 0 0 0 0 0 0 0 0 0 0 0 0 0
0 1 0 0 0 0 0 0 0 0 0 0 0 0 0 0 0 0 0 0 0 0 0 0 0 0 0 0 0 0 0 0 0 0 0 0 0 0 0 0 0 0 0 0
0 0 1 0 0 0 0 0 0 0 0 0 0 0 0 0 0 0 0 0 0 0 0 0 0 0 0 0 0 0 0 0 0 0 0 0 0 0 0 0 0 0 0 0
0 0 0 0 0 0 0 0 0 0 0 0 0 0 0 0 0 0 0 0 0 0 0 0 0 0 0 0 0 0 0 0 0 0 0 0 0 0 0 0 0 0 0 0
0 0 0 0 0 0 0 0 0 0 0 0 0 0 0 0 0 0 0 0 0 0 0 0 0 0 0 0 0 0 0 0 0 0 0 0 0 0 0 0 0 0 0 0
0 0 0 0 0 1 1 0 0 0 0 0 0 0 0 0 0 0 0 0 0 0 0 0 0 0 0 0 0 0 0 0 0 0 0 0 0 0 0 0 0 0 0 0
0 0 0 0 0 0 0 0 0 0 0 0 0 0 0 0 0 0 0 0 0 0 0 0 0 0 0 0 0 0 0 0 0 0 0 0 0 0 0 0 0 0 0 0
CIN
-0 -0 -0 -0 -0 -0 -0 -0 -0 -0 -0 -0 -0 -0 -0 -0 -0 -0 -0 -0 -0 -0 -0 -0 -0 -0 -0 -0 -0 -0 -0 -0 -0 -0 -0 -0 -0 -0 -0 -0 -0 -0 -0 -0
-0 -0 -0 -0 -0 -0 -38 -0 -0 -0 -0 -0 -0 -0 -0 -0 -0 -0 -0 -0 -0 -0 -0 -0 -0 -0 -0 -0 -0 -0 -2 -0 -0 -0 -0 -0 -0 -0 -0 -0 -0 -9 -0 -0
-0 -0 -0 -0 -0 -17 -4 -0 -0 -0 -0 -0 -0 -0 -0 -0 -0 -0 -0 -0 -0 -0 -0 -0 -0 -0 -0 -0 -0 -0 -0 -0 -0 -0 -0 -0 -0 -0 -0 -0 -0 -0 -0 -0
-0 -0 -0 -0 -11 -7 -0 -0 -0 -0 -0 -0 -0 -0 -0 -0 -0 -0 -0 -0 -0 -0 -0 -0 -0 -0 -0 -0 -0 -0 -0 -0 -0 -0 -0 -0 -0 -0 -0 -1 -0 -0 -0 -0
-0 -0 -0 -0 -54 -0 -0 -0 -0 -0 -0 -0 -0 -0 -0 -0 -0 -0 -0 -0 -0 -0 -0 -0 -0 -0 -0 -0 -0 -0 -2 -0 -0 -0 -0 -0 -0 -0 -0 -0 -0 -0 -0 -0
-0 -0 -2 -0 -0 -0 -0 -0 -0 -0 -0 -0 -0 -0 -0 -0 -0 -0 -0 -0 -0 -0 -0 -0 -0 -0 -0 -0 -0 -0 -0 -0 -0 -0 -0 -0 -0 -0 -0 -0 -0 -0 -0 -0
-0 -0 -0 -0 -0 -0 -0 -0 -0 -0 -0 -0 -0 -0 -0 -0 -0 -0 -0 -0 -0 -0 -0 -0 -0 -0 -0 -0 -0 -0 -0 -0 -0 -0 -0 -0 -0 -0 -0 -0 -0 -0 -0 -0
-0 -0 -0 -0 -0 -0 -0 -0 -0 -0 -0 -0 -0 -0 -0 -0 -0 -0 -0 -0 -0 -0 -0 -0 -0 -0 -0 -0 -0 -0 -0 -0 -0 -0 -0 -0 -0 -0 -0 -0 -0 -0 -0 -0
-0 -0 -0 -0 -0 -0 -0 -0 -0 -0 -0 -0 -0 -0 -0 -0 -0 -0 -0 -0 -0 -0 -0 -0 -0 -0 -0 -0 -0 -0 -0 -0 -0 -0 -0 -0 -0 -0 -0 -0 -0 -0 -0 -0
-0 -0 -0 -0 -0 -0 -0 -0 -0 -0 -0 -0 -0 -0 -0 -0 -0 -0 -0 -0 -0 -0 -0 -0 -0 -0 -0 -0 -0 -0 -0 -0 -0 -0 -0 -0 -0 -0 -0 -0 -0 -0 -0 -0
-0 -0 -0 -0 -0 -0 -0 -0 -0 -0 -0 -0 -0 -0 -0 -0 -0 -0 -0 -0 -0 -0 -0 -0 -0 -0 -0 -0 -0 -0 -0 -0 -0 -0 -0 -0 -0 -0 -0 -0 -0 -0 -0 -0
-0 -0 -0 -0 -0 -0 -0 -0 -0 -0 -0 -0 -0 -0 -0 -0 -0 -0 -0 -0 -0 -0 -0 -0 -0 -0 -0 -0 -0 -0 -0 -0 -0 -0 -0 -0 -0 -0 -0 -0 -0 -0 -0 -0
-0 -0 -0 -0 -0 -0 -0 -0 -0 -0 -0 -0 -0 -0 -0 -0 -0 -0 -0 -0 -0 -0 -0 -0 -0 -0 -1 -0 -0 -0 -0 -0 -0 -0 -0 -0 -0 -0 -0 -0 -0 -0 -0 -0
-0 -0 -0 -0 -0 -0 -0 -0 -0 -0 -0 -0 -0 -0 -0 -0 -0 -0 -0 -0 -0 -0 -0 -0 -0 -0 -1 -0 -0 -0 -0 -0 -0 -0 -0 -0 -0 -0 -0 -0 -0 -0 -0 -0
-0 -0 -0 -0 -0 -0 -0 -0 -0 -0 -0 -0 -0 -0 -0 -0 -0 -0 -0 -0 -0 -0 -0 -0 -0 -0 -0 -0 -0 -0 -0 -0 -0 -0 -0 -0 -0 -0 -0 -0 -0 -0 -0 -0
-0 -0 -0 -0 -0 -0 -0 -0 -0 -0 -0 -0 -0 -0 -0 -0 -0 -0 -0 -0 -0 -0 -0 -0 -0 -13 -0 -0 -0 -0 -0 -0 -0 -0 -0 -0 -0 -0 -0 -0 -0 -0 -0 -0
-0 -0 -0 -0 -0 -0 -0 -0 -0 -0 -0 -0 -0 -0 -0 -2 -0 -0 -0 -0 -0 -0 -0 -0 -8 -13 -0 -0 -0 -0 -0 -0 -0 -0 -0 -0 -0 -0 -0 -0 -0 -0 -0 -0
-0 -0 -0 -0 -0 -0 -0 -0 -0 -0 -0 -0 -0 -0 -1 -29 -0 -0 -0 -0 -0 -0 -0 -0 -2 -0 -0 -0 -0 -0 -0 -0 -0 -0 -0 -0 -0 -0 -0 -0 -0 -0 -0 -0
-0 -0 -0 -0 -0 -0 -0 -0 -0 -0 -0 -0 -0 -0 -1 -0 -0 -0 -0 -0 -0 -0 -0 -0 -6 -0 -0 -0 -0 -0 -0 -0 -0 -0 -0 -0 -0 -0 -0 -0 -0 -0 -0 -0
-0 -0 -0 -0 -0 -0 -0 -0 -0 -0 -0 -0 -0 -0 -0 -0 -0 -0 -0 -0 -0 -1 -14 -0 -0 -0 -0 -0 -0 -0 -0 -0 -0 -0 -0 -0 -0 -0 -0 -0 -0 -0 -0 -0
-0 -0 -0 -0 -6 -0 -0 -0 -0 -0 -0 -0 -0 -0 -0 -0 -0 -0 -0 -1 -0 -0 -0 -3 -0 -0 -0 -0 -0 -0 -0 -0 -0 -0 -0 -0 -0 -0 -0 -0 -0 -0 -0 -0
-0 -0 -2 -0 -0 -0 -0 -0 -0 -0 -0 -0 -0 -0 -0 -0 -0 -0 -0 -0 -0 -0 -0 -1 -1 -0 -0 -0 -0 -0 -0 -0 -0 -0 -0 -0 -0 -0 -0 -0 -0 -0 -0 -0
-0 -1 -0 -0 -0 -0 -0 -0 -0 -0 -0 -0 -0 -0 -0 -0 -0 -0 -0 -0 -0 -0 -0 -1 -0 -0 -0 -0 -0 -0 -0 -0 -0 -0 -0 -0 -0 -0 -0 -0 -0 -0 -0 -0
-0 -0 -0 -0 -0 -0 -0 -0 -0 -0 -0 -0 -0 -0 -1 -0 -0 -0 -0 -0 -0 -0 -0 -0 -0 -0 -0 -0 -0 -0 -0 -0 -0 -0 -0 -0 -0 -0 -0 -0 -0 -0 -0 -0
-0 -0 -0 -0 -0 -0 -0 -0 -0 -0 -0 -0 -0 -0 -0 -0 -0 -0 -0 -0 -0 -0 -0 -0 -0 -0 -0 -0 -0 -0 -0 -0 -0 -0 -0 -0 -0 -0 -0 -0 -0 -0 -0 -0
-0 -0 -0 -0 -0 -5 -2 -6 -0 -0 -0 -0 -0 -0 -0 -0 -0 -0 -0 -0 -0 -0 -0 -0 -0 -0 -0 -0 -0 -0 -0 -0 -0 -0 -0 -0 -0 -0 -0 -0 -0 -0 -0 -0
-0 -0 -0 -0 -0 -0 -0 -0 -0 -0 -0 -0 -0 -0 -0 -0 -0 -0 -0 -0 -0 -0 -0 -0 -0 -0 -0 -0 -0 -0 -0 -0 -0 -0 -0 -0 -0 -0 -0 -0 -0 -0 -0 -0
Wind_Speed
28 26 24 23 19 17 10 13 17 11 10 14 18 19 19 16 15 16 18 18 19 19 19 22 21 21 20 16 18 27 22 25 28 26 23 19 14 16 17 17 12 26 25 22
29 26 25 22 22 17 11 13 11 13 15 18 18 13 16 15 15 17 18 17 17 16 16 21 19 21 19 16 18 18 16 19 25 20 16 15 13 18 22 27 28 29 22 21
27 26 23 24 23 15 16 15 16 15 16 19 15 12 14 15 14 14 15 15 14 15 17 17 21 19 18 14 12 11 14 15 13 14 17 24 25 26 27 29 27 22 21 17
25 25 23 23 21 15 17 16 18 12 17 15 11 10 12 10 13 14 13 14 14 15 18 17 16 16 16 13 12 10 7 13 9 18 28 27 22 18 15 17 21 19 14 14
23 22 22 22 18 11 12 11 13 11 9 7 8 11 7 7 10 10 12 14 14 14 13 12 16 15 13 12 12 10 9 16 25 29 27 18 12 11 10 6 6 6 8 12
23 23 21 19 16 12 12 9 9 10 11 8 8 9 4 6 7 12 13 13 13 10 8 7 5 5 4 20 21 22 12 15 20 17 12 10 11 9 7 7 10 11 12 13
18 17 16 15 12 10 10 11 7 11 10 6 6 3 8 4 8 10 12 8 11 13 16 14 10 5 26 26 24 21 18 19 17 19 12 17 11 10 10 12 12 13 13 13
15 14 14 13 10 7 7 8 10 10 6 6 4 4 6 8 11 12 9 10 11 14 15 14 13 12 17 20 20 17 18 18 18 17 14 11 11 13 12 11 11 16 14 14
13 12 12 9 6 4 6 9 11 7 3 10 7 3 10 9 8 10 10 12 13 14 14 14 13 10 18 18 18 17 15 15 17 14 15 16 13 15 14 14 12 12 13 14
12 11 9 8 7 7 8 9 13 10 6 15 14 11 9 9 8 9 11 13 12 14 13 13 13 13 17 18 18 16 14 12 11 11 11 10 14 16 14 13 10 11 10 12
11 10 8 6 7 10 12 11 12 13 12 15 13 13 8 7 8 9 11 12 13 11 12 12 13 15 16 16 14 16 14 12 10 11 10 10 13 10 9 6 7 9 10 14
11 8 6 6 8 9 12 12 12 9 9 10 11 10 10 9 9 11 12 13 13 11 10 12 15 14 15 15 18 15 15 11 13 13 11 11 9 6 6 9 5 9 14 16
9 7 7 5 4 5 8 10 13 9 5 6 8 7 9 9 10 11 12 13 13 13 12 11 14 14 16 16 15 15 14 13 9 11 9 8 9 8 6 7 12 16 18 19
8 7 5 4 1 1 5 7 11 9 9 8 9 10 9 11 11 12 13 12 13 13 13 13 13 15 16 15 15 15 16 15 10 8 8 7 9 7 7 9 10 13 17 20
6 6 6 3 1 2 3 2 6 8 10 8 4 8 11 11 11 12 12 13 14 14 13 14 15 14 15 16 15 15 15 13 14 14 9 9 6 8 8 10 10 16 15 16
7 6 4 5 7 9 8 9 9 10 9 6 7 10 9 10 11 12 12 12 14 14 13 13 15 15 16 18 17 16 15 15 13 10 8 5 7 5 7 9 15 15 15 16
6 5 4 5 7 7 10 11 12 11 11 9 9 9 10 10 11 11 11 11 13 14 14 14 15 17 17 18 19 15 12 10 5 2 2 5 5 6 6 13 17 16 16 15
2 1 2 2 3 5 7 8 9 11 8 10 11 11 11 11 10 10 10 9 12 14 15 16 16 17 18 19 16 10 10 7 7 12 13 5 8 7 9 15 16 16 16 14
3 4 7 8 9 9 9 11 10 10 10 10 10 11 12 13 13 13 13 11 8 16 16 17 15 19 21 19 10 11 9 14 16 11 5 5 5 6 10 14 13 15 15 15
8 10 10 9 11 11 12 12 12 12 13 12 9 11 13 14 14 14 15 14 11 9 18 15 16 19 18 15 11 12 10 11 4 4 5 5 6 7 10 10 7 13 14 15
11 11 11 10 12 12 12 12 11 13 11 10 9 10 13 14 14 14 15 15 14 10 17 17 16 19 17 9 6 7 5 3 5 7 6 8 10 10 7 5 7 11 12 13
11 7 8 10 12 12 12 11 12 11 10 9 9 9 12 14 14 14 14 13 12 11 15 15 19 19 7 5 4 4 2 3 3 5 6 6 4 3 3 5 7 10 11 13
10 10 11 12 14 12 11 10 10 10 8 9 10 11 12 13 14 14 14 13 12 15 18 19 18 5 12 9 3 4 6 5 4 6 6 5 4 3 2 8 9 11 12 13
11 11 11 12 12 13 11 8 8 8 8 9 11 13 14 13 13 13 13 12 14 12 19 19 18 18 14 10 3 3 5 5 7 7 5 2 1 3 9 12 11 11 12 12
12 13 12 13 12 11 10 10 8 9 8 10 11 14 15 14 14 14 14 12 10 15 19 18 17 13 11 10 3 2 7 9 3 4 16 6 12 12 11 11 10 10 11 12
13 13 12 10 9 8 9 8 7 8 9 11 13 14 15 14 14 14 14 12 9 17 18 18 10 5 4 6 14 10 6 2 7 11 1 8 12 13 12 10 10 10 11 13
14 12 12 11 10 8 10 10 10 10 10 12 13 14 14 14 14 14 13 11 15 17 17 14 13 5 8 6 6 4 2 6 3 4 1 5 6 8 9 9 9 10 11 13
Wind_Direction
186 182 180 178 174 173 204 246 263 246 241 253 262 269 275 285 285 302 308 307 311 307 309 309 311 311 313 324 330 322 324 320 317 322 326 317 306 314 315 312 320 240 243 259
175 174 173 173 167 174 224 243 261 259 254 252 255 280 278 286 293 304 305 310 312 317 317 315 316 319 329 330 326 331 341 334 328 335 349 7 353 303 265 241 239 229 250 263
167 168 170 167 165 194 233 241 250 257 258 268 259 260 272 289 305 305 310 314 319 324 321 321 323 330 339 348 344 344 346 333 324 320 323 293 273 262 255 230 223 240 253 259
160 160 166 170 175 203 235 251 253 249 238 254 259 277 286 284 295 305 311 314 319 325 326 333 339 351 353 1 358 347 359 338 345 208 236 249 261 261 254 232 235 243 251 269
149 158 169 163 183 193 251 252 244 256 266 238 246 272 270 282 298 307 310 315 324 334 345 360 350 359 5 13 356 16 40 335 284 252 229 245 254 270 261 293 318 283 326 313
143 143 154 164 178 220 255 270 263 247 257 243 240 258 270 283 296 294 306 330 349 10 17 28 21 25 64 212 234 227 323 199 262 260 100 245 246 286 303 300 332 281 277 355
152 153 168 171 182 231 256 245 253 254 249 234 251 254 273 267 291 311 322 29 13 18 2 360 12 357 231 227 220 210 199 182 253 214 244 232 272 309 340 5 333 338 3 8
144 153 168 184 195 221 243 245 255 260 236 241 259 244 258 269 287 316 8 12 28 18 23 25 19 9 258 240 215 222 188 209 248 236 249 260 282 267 285 309 322 344 344 330
144 151 159 162 166 164 234 253 258 258 171 257 240 225 253 283 321 350 2 12 13 29 34 29 14 1 251 251 247 266 263 196 249 251 248 249 279 279 262 240 328 301 328 347
142 147 149 161 195 223 236 243 239 245 254 235 232 249 271 303 345 22 21 19 29 32 39 23 10 294 261 252 248 256 248 254 252 260 274 292 294 254 267 283 330 336 329 350
151 152 159 180 211 223 227 233 241 234 236 227 243 255 295 335 6 46 35 40 33 36 32 16 329 273 269 267 278 260 247 249 263 271 271 276 274 251 307 333 296 360 4 21
161 159 167 191 210 220 224 225 234 241 243 235 254 278 303 331 28 39 38 45 42 29 25 352 288 279 276 278 256 269 258 276 260 259 263 257 271 303 253 236 335 10 39 36
161 167 180 189 217 233 227 219 226 236 230 263 274 310 336 10 20 8 41 35 30 16 320 328 298 281 279 273 276 261 266 272 283 276 276 278 244 252 288 340 42 55 61 59
164 171 176 188 208 241 230 230 242 244 250 280 276 293 356 350 36 18 16 25 0 346 339 300 299 279 287 275 277 268 258 263 286 289 269 269 263 297 357 20 29 40 50 60
163 178 190 187 150 55 37 338 282 267 267 286 323 311 320 9 51 36 23 10 5 348 338 309 283 294 290 284 278 276 273 266 259 256 265 281 314 32 31 34 25 55 47 43
177 190 201 220 229 239 253 252 273 279 267 324 358 319 346 19 37 44 28 6 3 350 334 320 290 295 293 273 274 274 273 267 268 267 274 334 54 7 13 27 58 48 49 45
196 210 232 250 256 273 267 254 247 260 267 325 6 16 6 16 45 40 37 359 358 338 332 317 293 280 288 277 261 272 284 273 277 300 14 302 298 322 11 51 67 61 50 38
187 213 244 265 304 297 280 278 271 273 309 330 20 25 31 32 52 53 34 31 346 318 312 308 302 286 278 268 282 286 259 251 238 247 260 308 45 43 43 71 77 67 61 44
200 219 231 244 269 269 262 252 279 306 316 350 7 54 55 35 51 54 54 34 12 293 292 294 317 282 259 267 278 269 261 248 246 271 352 27 24 30 65 78 69 72 68 61
219 236 258 267 256 248 254 263 278 293 302 326 10 17 40 47 56 53 56 58 52 345 271 300 305 289 283 284 274 267 272 278 311 302 299 323 38 56 74 72 36 71 71 66
245 255 266 242 249 265 273 283 296 295 334 332 357 20 44 47 52 55 63 72 76 22 262 289 304 274 272 294 300 295 315 34 52 359 42 64 78 77 64 30 46 62 65 60
246 253 248 252 268 269 282 288 297 315 342 348 13 31 45 49 48 48 57 58 32 38 305 288 232 231 33 332 313 338 46 63 42 22 48 45 39 315 18 50 49 56 49 54
247 254 259 263 271 277 286 300 310 340 6 18 28 30 36 42 30 31 35 54 49 312 246 228 227 23 84 78 8 318 276 278 278 274 269 285 284 324 355 70 61 60 52 48
260 263 265 275 277 277 284 306 327 324 350 38 33 20 21 32 32 19 34 38 326 301 242 230 232 135 98 80 21 27 275 264 252 256 269 355 3 54 77 84 78 65 54 38
255 265 271 271 274 273 282 288 318 330 20 25 17 10 19 24 22 6 357 25 50 277 242 256 258 92 87 85 304 24 258 252 279 263 229 87 98 95 82 75 64 45 30 21
261 270 272 279 287 297 288 306 342 342 357 357 358 4 8 15 13 1 350 358 11 271 270 279 314 11 32 77 110 89 68 332 257 246 274 98 101 100 90 71 50 29 16 10
267 276 277 285 289 294 292 301 314 312 333 341 355 356 5 18 8 1 355 359 296 272 277 288 281 341 92 82 79 61 353 272 287 282 78 89 77 77 71 65 66 41 20 11